TimeEDT,TemperatureF,Dew PointF,Humidity,Sea Level PressureIn,VisibilityMPH,Wind Direction,Wind SpeedMPH,Gust SpeedMPH,PrecipitationIn,Events,Conditions,WindDirDegrees,DateUTC
12:15 AM,48.9,45.9,89,30.01,10.0,Calm,Calm,-,N/A,,Clear,0,2013-10-01 04:15:00
12:35 AM,49.1,46.4,90,30.01,10.0,Calm,Calm,-,N/A,,Clear,0,2013-10-01 04:35:00
12:55 AM,47.5,44.6,90,30.01,10.0,Calm,Calm,-,N/A,,Clear,0,2013-10-01 04:55:00
1:15 AM,47.5,44.8,90,30.01,10.0,Calm,Calm,-,N/A,,Clear,0,2013-10-01 05:15:00
1:35 AM,47.3,44.4,90,30.01,10.0,Calm,Calm,-,N/A,,Clear,0,2013-10-01 05:35:00
1:55 AM,47.5,44.8,90,30.01,10.0,Calm,Calm,-,N/A,,Clear,0,2013-10-01 05:55:00
2:15 AM,46.9,44.1,90,30.01,3.0,Calm,Calm,-,N/A,,Clear,0,2013-10-01 06:15:00
2:35 AM,47.3,44.6,90,30.00,4.0,Calm,Calm,-,N/A,,Clear,0,2013-10-01 06:35:00
2:55 AM,44.8,42.3,91,30.01,0.5,Calm,Calm,-,N/A,Fog,Fog,0,2013-10-01 06:55:00
3:15 AM,45.7,43.2,91,30.00,0.5,Calm,Calm,-,N/A,Fog,Fog,0,2013-10-01 07:15:00
3:35 AM,43.5,41.2,91,29.99,0.5,Calm,Calm,-,N/A,Fog,Fog,0,2013-10-01 07:35:00
3:55 AM,44.6,42.1,91,29.99,0.5,Calm,Calm,-,N/A,Fog,Fog,0,2013-10-01 07:55:00
4:15 AM,43.7,41.4,91,30.00,0.2,Calm,Calm,-,N/A,Fog,Fog,0,2013-10-01 08:15:00
4:35 AM,42.8,40.6,92,30.01,0.2,Calm,Calm,-,N/A,Fog,Fog,0,2013-10-01 08:35:00
4:55 AM,41.5,39.2,91,30.01,0.2,Calm,Calm,-,N/A,Fog,Fog,0,2013-10-01 08:55:00
5:15 AM,42.1,39.7,91,30.01,1.2,Calm,Calm,-,N/A,,Mist,0,2013-10-01 09:15:00
5:35 AM,43.7,41.2,91,30.00,5.0,Calm,Calm,-,N/A,,Clear,0,2013-10-01 09:35:00
5:55 AM,40.5,38.3,92,30.01,0.8,Calm,Calm,-,N/A,,Overcast,0,2013-10-01 09:55:00
6:15 AM,41.0,39.0,93,30.01,0.2,West,3.5,-,N/A,Fog,Fog,280,2013-10-01 10:15:00
6:35 AM,40.6,38.5,92,30.01,0.2,East,3.5,-,N/A,Fog,Fog,100,2013-10-01 10:35:00
6:55 AM,38.5,36.5,93,30.02,0.8,Calm,Calm,-,N/A,,Overcast,0,2013-10-01 10:55:00
7:15 AM,39.6,37.4,92,30.02,0.2,Calm,Calm,-,N/A,Fog,Fog,0,2013-10-01 11:15:00
7:35 AM,40.5,38.3,92,30.02,0.2,Calm,Calm,-,N/A,Fog,Fog,0,2013-10-01 11:35:00
7:55 AM,41.9,39.6,91,30.03,0.2,Calm,Calm,-,N/A,Fog,Fog,0,2013-10-01 11:55:00
8:15 AM,43.9,41.5,91,30.03,1.2,Calm,Calm,-,N/A,,Mostly Cloudy,0,2013-10-01 12:15:00
8:35 AM,42.8,40.3,91,30.03,0.2,Calm,Calm,-,N/A,Fog,Fog,0,2013-10-01 12:35:00
8:55 AM,44.6,42.3,91,30.02,0.2,Calm,Calm,-,N/A,Fog,Fog,0,2013-10-01 12:55:00
9:15 AM,48.4,46.0,92,30.02,0.5,Calm,Calm,-,N/A,Fog,Fog,0,2013-10-01 13:15:00
9:35 AM,50.0,47.7,92,30.02,10.0,Calm,Calm,-,N/A,,Scattered Clouds,0,2013-10-01 13:35:00
9:55 AM,52.3,50.2,92,30.01,10.0,Calm,Calm,-,N/A,,Clear,0,2013-10-01 13:55:00
10:15 AM,53.1,50.7,92,30.01,10.0,Calm,Calm,-,N/A,,Clear,0,2013-10-01 14:15:00
10:35 AM,54.9,52.5,92,30.01,10.0,Calm,Calm,-,N/A,,Clear,0,2013-10-01 14:35:00
10:55 AM,57.6,54.5,90,30.00,10.0,Calm,Calm,-,N/A,,Clear,0,2013-10-01 14:55:00
11:15 AM,63.5,48.7,59,29.99,10.0,Calm,Calm,-,N/A,,Clear,0,2013-10-01 15:15:00
11:35 AM,65.8,48.9,54,29.98,10.0,Calm,Calm,-,N/A,,Clear,0,2013-10-01 15:35:00
11:55 AM,67.1,48.7,52,29.98,10.0,ESE,4.6,-,N/A,,Clear,120,2013-10-01 15:55:00
12:15 PM,68.4,48.2,48,29.97,10.0,Calm,Calm,-,N/A,,Clear,0,2013-10-01 16:15:00
12:35 PM,69.3,48.0,47,29.96,10.0,SE,3.5,-,N/A,,Clear,140,2013-10-01 16:35:00
12:55 PM,71.4,49.3,45,29.95,10.0,Calm,Calm,-,N/A,,Clear,0,2013-10-01 16:55:00
1:15 PM,70.7,48.0,44,29.95,10.0,NNW,12.7,-,N/A,,Mostly Cloudy,330,2013-10-01 17:15:00
1:35 PM,70.0,49.5,48,29.95,10.0,WNW,10.4,16.1,N/A,,Overcast,300,2013-10-01 17:35:00
1:55 PM,72.0,50.2,46,29.94,10.0,NNW,10.4,-,N/A,,Mostly Cloudy,330,2013-10-01 17:55:00
2:15 PM,71.1,50.0,47,29.93,10.0,NW,11.5,17.3,N/A,,Mostly Cloudy,310,2013-10-01 18:15:00
2:35 PM,71.6,50.9,48,29.93,10.0,NNW,9.2,-,N/A,,Mostly Cloudy,330,2013-10-01 18:35:00
2:55 PM,70.9,50.9,49,29.93,10.0,NNW,8.1,-,N/A,,Scattered Clouds,340,2013-10-01 18:55:00
3:15 PM,71.1,50.4,48,29.92,10.0,NW,8.1,-,N/A,,Scattered Clouds,310,2013-10-01 19:15:00
3:35 PM,72.7,51.1,47,29.92,10.0,North,8.1,-,N/A,,Mostly Cloudy,350,2013-10-01 19:35:00
3:55 PM,73.4,51.4,46,29.91,10.0,NW,3.5,-,N/A,,Mostly Cloudy,320,2013-10-01 19:55:00
4:15 PM,72.1,50.7,47,29.91,10.0,WNW,9.2,-,N/A,,Scattered Clouds,300,2013-10-01 20:15:00
4:35 PM,71.6,50.7,48,29.91,10.0,WNW,6.9,-,N/A,,Scattered Clouds,300,2013-10-01 20:35:00
4:55 PM,71.2,50.7,48,29.91,10.0,WNW,8.1,-,N/A,,Clear,300,2013-10-01 20:55:00
5:15 PM,70.5,51.8,51,29.91,10.0,Calm,Calm,-,N/A,,Clear,0,2013-10-01 21:15:00
5:35 PM,70.2,51.8,52,29.91,10.0,NNW,3.5,-,N/A,,Clear,340,2013-10-01 21:35:00
5:55 PM,68.7,50.4,52,29.91,10.0,North,3.5,-,N/A,,Clear,350,2013-10-01 21:55:00
6:15 PM,67.5,50.2,54,29.91,10.0,North,4.6,-,N/A,,Clear,350,2013-10-01 22:15:00
6:35 PM,65.5,50.0,57,29.91,10.0,North,3.5,-,N/A,,Clear,360,2013-10-01 22:35:00
6:55 PM,65.1,50.2,58,29.91,10.0,WNW,3.5,-,N/A,,Clear,290,2013-10-01 22:55:00
7:15 PM,63.9,50.5,62,29.92,10.0,Calm,Calm,-,N/A,,Clear,0,2013-10-01 23:15:00
7:35 PM,63.9,50.9,63,29.92,10.0,Calm,Calm,-,N/A,,Clear,0,2013-10-01 23:35:00
7:55 PM,61.2,51.1,69,29.93,10.0,Calm,Calm,-,N/A,,Clear,0,2013-10-01 23:55:00
8:15 PM,60.1,51.6,74,29.93,10.0,Calm,Calm,-,N/A,,Clear,0,2013-10-02 00:15:00
8:35 PM,59.7,52.0,76,29.93,10.0,Calm,Calm,-,N/A,,Clear,0,2013-10-02 00:35:00
8:55 PM,57.7,51.8,81,29.93,10.0,Calm,Calm,-,N/A,,Clear,0,2013-10-02 00:55:00
9:15 PM,57.6,51.3,79,29.93,10.0,Calm,Calm,-,N/A,,Clear,0,2013-10-02 01:15:00
9:35 PM,56.1,51.3,84,29.93,10.0,Calm,Calm,-,N/A,,Clear,0,2013-10-02 01:35:00
9:55 PM,58.6,52.2,79,29.93,10.0,Calm,Calm,-,N/A,,Clear,0,2013-10-02 01:55:00
10:15 PM,57.0,51.8,83,29.93,10.0,Calm,Calm,-,N/A,,Clear,0,2013-10-02 02:15:00
10:35 PM,55.8,51.6,86,29.93,10.0,Calm,Calm,-,N/A,,Scattered Clouds,0,2013-10-02 02:35:00
10:55 PM,55.4,50.9,85,29.92,10.0,Calm,Calm,-,N/A,,Scattered Clouds,0,2013-10-02 02:55:00
11:15 PM,54.3,50.7,88,29.92,7.0,Calm,Calm,-,N/A,,Scattered Clouds,0,2013-10-02 03:15:00
11:35 PM,54.1,51.3,90,29.92,7.0,Calm,Calm,-,N/A,,Mostly Cloudy,0,2013-10-02 03:35:00
11:55 PM,54.5,51.4,89,29.91,7.0,Calm,Calm,-,N/A,,Scattered Clouds,0,2013-10-02 03:55:00